When you browse on this site, cookies collect data to enhance your experience and personalize the content and advertising you see.
Visit our Privacy Policy to learn more. By continuing to use the site, you agree to this use of cookies and data.

Meteo pe oră la Alice Springs

Astăzi, 6 August, Joi

Timp Temperatura Precipitaţii Vânt Presiune Umiditate
00:00 +15°C° 0.1 mm 4 m/s 703 mmHg 67%
01:00 +15°C° 0 mm 4 m/s 702 mmHg 61%
02:00 +14°C° 0 mm 3 m/s 702 mmHg 56%
03:00 +13°C° 0 mm 3 m/s 702 mmHg 58%
04:00 +14°C° 0 mm 2 m/s 702 mmHg 57%
05:00 +13°C° 0 mm 1 m/s 702 mmHg 56%
06:00 +13°C° 0 mm 1 m/s 702 mmHg 54%
07:00 +15°C° 0 mm 2 m/s 702 mmHg 48%
08:00 +16°C° 0 mm 3 m/s 703 mmHg 42%
09:00 +18°C° 0 mm 4 m/s 703 mmHg 37%
10:00 +17°C° 0 mm 6 m/s 703 mmHg 36%
11:00 +18°C° 0 mm 8 m/s 703 mmHg 35%
12:00 +18°C° 0 mm 9 m/s 703 mmHg 34%
13:00 +18°C° 0 mm 10 m/s 703 mmHg 31%
14:00 +18°C° 0 mm 11 m/s 703 mmHg 27%
15:00 +18°C° 0 mm 9 m/s 703 mmHg 28%
16:00 +16°C° 0 mm 8 m/s 703 mmHg 32%
17:00 +15°C° 0 mm 7 m/s 703 mmHg 36%
18:00 +12°C° 0 mm 7 m/s 704 mmHg 40%
19:00 +11°C° 0 mm 6 m/s 704 mmHg 43%
20:00 +10°C° 0 mm 5 m/s 705 mmHg 46%
21:00 +11°C° 0 mm 4 m/s 705 mmHg 50%
22:00 +10°C° 0 mm 4 m/s 705 mmHg 51%
23:00 +10°C° 0 mm 4 m/s 705 mmHg 52%

Mâine, 7 August, Vineri

Timp Temperatura Precipitaţii Vânt Presiune Umiditate
00:00 +10°C° 0 mm 4 m/s 706 mmHg 53%
01:00 +8°C° 0 mm 4 m/s 705 mmHg 57%
02:00 +8°C° 0 mm 5 m/s 705 mmHg 62%
03:00 +7°C° 0 mm 5 m/s 705 mmHg 66%
04:00 +7°C° 0 mm 5 m/s 706 mmHg 74%
05:00 +6°C° 0 mm 5 m/s 706 mmHg 82%
06:00 +6°C° 0 mm 4 m/s 706 mmHg 89%
07:00 +7°C° 0 mm 5 m/s 707 mmHg 84%
08:00 +8°C° 0 mm 5 m/s 708 mmHg 79%
09:00 +9°C° 0 mm 5 m/s 708 mmHg 74%
10:00 +12°C° 0 mm 5 m/s 708 mmHg 66%
11:00 +13°C° 0 mm 5 m/s 708 mmHg 57%
12:00 +14°C° 0 mm 5 m/s 708 mmHg 49%
13:00 +15°C° 0 mm 5 m/s 708 mmHg 45%
14:00 +15°C° 0 mm 6 m/s 708 mmHg 40%
15:00 +16°C° 0 mm 6 m/s 707 mmHg 36%
16:00 +15°C° 0 mm 6 m/s 708 mmHg 40%
17:00 +13°C° 0 mm 5 m/s 708 mmHg 44%
18:00 +12°C° 0 mm 4 m/s 708 mmHg 49%
19:00 +11°C° 0 mm 4 m/s 709 mmHg 53%
20:00 +10°C° 0 mm 3 m/s 709 mmHg 57%
21:00 +9°C° 0 mm 3 m/s 710 mmHg 61%
22:00 +8°C° 0 mm 3 m/s 710 mmHg 64%
23:00 +8°C° 0 mm 3 m/s 710 mmHg 66%

Poimâine, 8 August, Sâmbătă

Timp Temperatura Precipitaţii Vânt Presiune Umiditate
00:00 +7°C° 0 mm 3 m/s 710 mmHg 69%
01:00 +5°C° 0 mm 3 m/s 709 mmHg 72%
02:00 +5°C° 0 mm 3 m/s 709 mmHg 75%
03:00 +5°C° 0 mm 2 m/s 709 mmHg 79%
04:00 +5°C° 0 mm 2 m/s 710 mmHg 81%
05:00 +4°C° 0 mm 2 m/s 710 mmHg 83%
06:00 +4°C° 0 mm 1 m/s 710 mmHg 85%
07:00 +6°C° 0 mm 2 m/s 711 mmHg 74%
08:00 +8°C° 0 mm 2 m/s 711 mmHg 64%
09:00 +10°C° 0 mm 3 m/s 712 mmHg 53%
10:00 +12°C° 0 mm 3 m/s 712 mmHg 47%
11:00 +13°C° 0 mm 3 m/s 712 mmHg 40%
12:00 +15°C° 0 mm 4 m/s 711 mmHg 33%
13:00 +15°C° 0 mm 4 m/s 711 mmHg 30%
14:00 +17°C° 0 mm 4 m/s 710 mmHg 27%
15:00 +18°C° 0 mm 4 m/s 710 mmHg 24%
16:00 +15°C° 0 mm 4 m/s 710 mmHg 28%
17:00 +14°C° 0 mm 3 m/s 710 mmHg 32%
18:00 +12°C° 0 mm 3 m/s 710 mmHg 35%
19:00 +11°C° 0 mm 3 m/s 710 mmHg 39%
20:00 +10°C° 0 mm 2 m/s 710 mmHg 43%
21:00 +9°C° 0 mm 2 m/s 710 mmHg 47%
22:00 +8°C° 0 mm 2 m/s 710 mmHg 51%
23:00 +8°C° 0 mm 1 m/s 710 mmHg 56%

9 August, Duminică

Timp Temperatura Precipitaţii Vânt Presiune Umiditate
00:00 +8°C° 0 mm 1 m/s 710 mmHg 60%
01:00 +8°C° 0 mm 1 m/s 710 mmHg 59%
02:00 +7°C° 0 mm 1 m/s 710 mmHg 59%
03:00 +6°C° 0 mm 2 m/s 710 mmHg 59%
04:00 +6°C° 0 mm 2 m/s 710 mmHg 61%
05:00 +6°C° 0 mm 2 m/s 711 mmHg 63%
06:00 +5°C° 0 mm 2 m/s 711 mmHg 66%
07:00 +7°C° 0 mm 2 m/s 712 mmHg 59%
08:00 +10°C° 0 mm 3 m/s 712 mmHg 53%
09:00 +12°C° 0 mm 3 m/s 713 mmHg 46%
10:00 +14°C° 0 mm 3 m/s 712 mmHg 41%
11:00 +16°C° 0 mm 2 m/s 712 mmHg 35%
12:00 +19°C° 0 mm 1 m/s 712 mmHg 30%
13:00 +19°C° 0 mm 2 m/s 711 mmHg 27%
14:00 +20°C° 0 mm 2 m/s 711 mmHg 24%
15:00 +21°C° 0 mm 2 m/s 710 mmHg 21%
16:00 +19°C° 0 mm 2 m/s 710 mmHg 24%
17:00 +17°C° 0 mm 3 m/s 710 mmHg 27%
18:00 +16°C° 0 mm 3 m/s 710 mmHg 30%
19:00 +13°C° 0 mm 3 m/s 710 mmHg 34%
20:00 +12°C° 0 mm 3 m/s 710 mmHg 39%
21:00 +11°C° 0 mm 3 m/s 711 mmHg 43%
22:00 +10°C° 0 mm 3 m/s 710 mmHg 45%
23:00 +10°C° 0 mm 3 m/s 710 mmHg 47%

10 August, Luni

Timp Temperatura Precipitaţii Vânt Presiune Umiditate
00:00 +9°C° 0 mm 2 m/s 710 mmHg 49%
01:00 +9°C° 0 mm 2 m/s 710 mmHg 50%
02:00 +8°C° 0 mm 2 m/s 710 mmHg 51%
03:00 +8°C° 0 mm 2 m/s 710 mmHg 52%
04:00 +8°C° 0 mm 2 m/s 710 mmHg 52%
05:00 +8°C° 0 mm 3 m/s 710 mmHg 51%
06:00 +8°C° 0 mm 3 m/s 711 mmHg 51%
07:00 +10°C° 0 mm 4 m/s 711 mmHg 44%
08:00 +13°C° 0 mm 5 m/s 711 mmHg 37%
09:00 +16°C° 0 mm 5 m/s 712 mmHg 30%
10:00 +19°C° 0 mm 6 m/s 711 mmHg 26%
11:00 +22°C° 0 mm 6 m/s 711 mmHg 21%
12:00 +26°C° 0 mm 6 m/s 711 mmHg 17%
13:00 +26°C° 0 mm 6 m/s 710 mmHg 16%
14:00 +27°C° 0 mm 6 m/s 709 mmHg 15%
15:00 +28°C° 0 mm 6 m/s 708 mmHg 14%
16:00 +26°C° 0 mm 5 m/s 708 mmHg 16%
17:00 +23°C° 0 mm 4 m/s 708 mmHg 19%
18:00 +21°C° 0 mm 4 m/s 708 mmHg 21%
19:00 +20°C° 0 mm 4 m/s 708 mmHg 22%
20:00 +19°C° 0 mm 5 m/s 708 mmHg 23%
21:00 +17°C° 0 mm 6 m/s 709 mmHg 24%
22:00 +17°C° 0 mm 6 m/s 709 mmHg 24%
23:00 +16°C° 0 mm 6 m/s 708 mmHg 25%

11 August, Marţi

Timp Temperatura Precipitaţii Vânt Presiune Umiditate
00:00 +16°C° 0 mm 6 m/s 708 mmHg 25%
01:00 +15°C° 0 mm 7 m/s 708 mmHg 26%
02:00 +15°C° 0 mm 7 m/s 707 mmHg 26%
03:00 +15°C° 0 mm 8 m/s 707 mmHg 26%
04:00 +13°C° 0 mm 8 m/s 707 mmHg 26%
05:00 +13°C° 0 mm 8 m/s 707 mmHg 26%
06:00 +13°C° 0 mm 9 m/s 707 mmHg 26%
07:00 +16°C° 0 mm 10 m/s 707 mmHg 23%
08:00 +19°C° 0 mm 11 m/s 708 mmHg 21%
09:00 +22°C° 0 mm 12 m/s 708 mmHg 18%
10:00 +24°C° 0 mm 12 m/s 708 mmHg 19%
11:00 +27°C° 0 mm 12 m/s 708 mmHg 19%
12:00 +31°C° 0 mm 12 m/s 708 mmHg 20%
13:00 +31°C° 0 mm 12 m/s 707 mmHg 20%
14:00 +31°C° 0 mm 12 m/s 706 mmHg 21%
15:00 +31°C° 0 mm 12 m/s 706 mmHg 22%
16:00 +29°C° 0 mm 10 m/s 706 mmHg 26%
17:00 +27°C° 0 mm 8 m/s 706 mmHg 30%
18:00 +26°C° 0 mm 6 m/s 706 mmHg 34%
19:00 +24°C° 0 mm 6 m/s 707 mmHg 37%
20:00 +23°C° 0 mm 6 m/s 707 mmHg 40%
21:00 +22°C° 0 mm 5 m/s 707 mmHg 43%
22:00 +21°C° 0 mm 5 m/s 707 mmHg 45%
23:00 +19°C° 0 mm 4 m/s 707 mmHg 47%
Arată mai mult